User: anonymous   Login
Location: Albany
(35.0000°S, 118.0000°E)
Time: 03:51:37
(UTC-05:00)
Language:

SJ-6B - Orbit

View from above orbital plane
View from above orbital plane
View from above satellite
View from above satellite

Ground track
Ground track

The orbit data is extracted from the following two-line orbital elements,

1 28415U 04035C   14328.77218026  .00005039  00000-0  36510-3 0  3510
2 28415 097.7994 334.4510 0056828 049.7370 310.8804 15.03119362557862
Epoch (UTC): 24 November 2014 18:31:56
Eccentricity: 0.0056828
inclination: 97.7994°
perigee height: 518 km
apogee height: 597 km
right ascension of ascending node: 334.4510°
argument of perigee: 49.7370°
revolutions per day: 15.03119362
mean anomaly at epoch: 310.8804°
orbit number at epoch: 55786

The dashed part of the orbit path shows where the satellite is in the earth's shadow,  

DLR